| time (UTC) | temp C | wind direction | speed KPH | gust KPH | rain 1hr cm | rain 24hr cm | rain mn cm | humidity % | barometer mb |
| 20260507050747 | 3 | 309 | 8.0 | 12.9 | 0.00 | 0.00 | 0.00 | 99 | 1011.3 |
| 20260507050243 | 3 | 326 | 9.7 | 11.3 | 0.00 | 0.00 | 0.00 | 99 | 1011.7 |
| 20260507045740 | 4 | 280 | 8.0 | 9.7 | 0.00 | 0.00 | 0.00 | 99 | 1011.3 |
| 20260507045236 | 4 | 302 | 4.8 | 4.8 | 0.00 | 0.00 | 0.00 | 99 | 1011.7 |
| 20260507044734 | 4 | 305 | 4.8 | 4.8 | 0.00 | 0.00 | 0.00 | 99 | 1011.3 |
| 20260507044230 | 4 | 201 | 6.4 | 9.7 | 0.00 | 0.00 | 0.00 | 99 | 1011.7 |
| 20260507043726 | 4 | 312 | 4.8 | 4.8 | 0.00 | 0.00 | 0.00 | 99 | 1011.3 |
| 20260507043223 | 4 | 275 | 17.7 | 24.1 | 0.00 | 0.00 | 0.00 | 99 | 1011.3 |
| 20260507042719 | 5 | 302 | 14.5 | 16.1 | 0.00 | 0.00 | 0.00 | 99 | 1011.3 |
| 20260507042214 | 5 | 315 | 14.5 | 14.5 | 0.00 | 0.00 | 0.00 | 99 | 1011.3 |
| 20260507041712 | 5 | 259 | 3.2 | 3.2 | 0.00 | 0.00 | 0.00 | 99 | 1011.3 |
| 20260507041209 | 5 | 307 | 8.0 | 12.9 | 0.00 | 0.00 | 0.00 | 99 | 1011.0 |
| 20260507040706 | 5 | 293 | 8.0 | 12.9 | 0.00 | 0.00 | 0.00 | 99 | 1011.0 |
| 20260507040201 | 5 | 295 | 4.8 | 8.0 | 0.00 | 0.00 | 0.00 | 99 | 1011.0 |
| 20260507035658 | 5 | 306 | 4.8 | 8.0 | 0.03 | 1.09 | 1.09 | 99 | 1011.0 |
| 20260507035154 | 5 | 255 | 1.6 | 3.2 | 0.03 | 1.09 | 1.09 | 99 | 1010.6 |
| 20260507034650 | 5 | 305 | 3.2 | 3.2 | 0.03 | 1.09 | 1.09 | 99 | 1010.6 |
| 20260507034148 | 5 | 270 | 8.0 | 11.3 | 0.03 | 1.09 | 1.09 | 99 | 1010.2 |
| 20260507033647 | 5 | 280 | 3.2 | 3.2 | 0.03 | 1.09 | 1.09 | 99 | 1010.6 |
| 20260507033143 | 5 | 225 | 1.6 | 1.6 | 0.03 | 1.09 | 1.09 | 99 | 1010.6 |
| 20260507032641 | 5 | 243 | 0.0 | 0.0 | 0.03 | 1.09 | 1.09 | 99 | 1010.6 |
| 20260507032136 | 5 | 265 | 3.2 | 3.2 | 0.03 | 1.09 | 1.09 | 99 | 1011.3 |
| 20260507031634 | 5 | 251 | 1.6 | 1.6 | 0.00 | 1.07 | 1.07 | 99 | 1011.0 |
| 20260507031130 | 5 | 252 | 1.6 | 1.6 | 0.00 | 1.07 | 1.07 | 99 | 1011.0 |
| 20260507030627 | 5 | 229 | 1.6 | 1.6 | 0.00 | 1.07 | 1.07 | 99 | 1011.3 |
| 20260507030125 | 5 | 232 | 1.6 | 1.6 | 0.00 | 1.07 | 1.07 | 99 | 1011.0 |
| 20260507025621 | 5 | 235 | 1.6 | 1.6 | 0.03 | 1.07 | 1.07 | 99 | 1011.0 |
| 20260507025118 | 5 | 245 | 3.2 | 3.2 | 0.03 | 1.07 | 1.07 | 99 | 1011.0 |
| 20260507024617 | 5 | 253 | 3.2 | 3.2 | 0.00 | 1.04 | 1.04 | 99 | 1011.0 |
| 20260507024114 | 5 | 243 | 1.6 | 3.2 | 0.00 | 1.04 | 1.04 | 99 | 1011.0 |
| 20260507023609 | 5 | 246 | 1.6 | 1.6 | 0.00 | 1.04 | 1.04 | 99 | 1011.0 |
| 20260507023107 | 5 | 251 | 1.6 | 1.6 | 0.00 | 1.04 | 1.04 | 99 | 1011.0 |
| 20260507022603 | 5 | 265 | 3.2 | 3.2 | 0.00 | 1.04 | 1.04 | 99 | 1010.6 |
| 20260507022053 | 5 | 245 | 1.6 | 1.6 | 0.00 | 1.04 | 1.04 | 99 | 1011.0 |
| 20260507021549 | 5 | 266 | 0.0 | 1.6 | 0.00 | 1.04 | 1.04 | 99 | 1011.3 |
| 20260507021045 | 5 | 272 | 3.2 | 3.2 | 0.00 | 1.04 | 1.04 | 99 | 1011.0 |
| 20260507020543 | 5 | 242 | 1.6 | 1.6 | 0.00 | 1.04 | 1.04 | 99 | 1011.3 |
| 20260507020034 | 5 | 243 | 3.2 | 3.2 | 0.00 | 1.04 | 1.04 | 99 | 1011.3 |
| 20260507015532 | 5 | 297 | 3.2 | 3.2 | 0.00 | 1.04 | 1.04 | 99 | 1011.0 |
| 20260507015030 | 5 | 244 | 1.6 | 1.6 | 0.00 | 1.04 | 1.04 | 99 | 1011.3 |
| 20260507014526 | 5 | 247 | 3.2 | 3.2 | 0.00 | 1.04 | 1.04 | 99 | 1011.7 |
| 20260507014021 | 5 | 255 | 1.6 | 3.2 | 0.00 | 1.04 | 1.04 | 99 | 1011.3 |
| 20260507013518 | 5 | 245 | 0.0 | 1.6 | 0.00 | 1.04 | 1.04 | 99 | 1011.7 |
| 20260507013016 | 4 | 257 | 1.6 | 3.2 | 0.00 | 1.04 | 1.04 | 99 | 1011.3 |
| 20260507012513 | 4 | 286 | 3.2 | 3.2 | 0.00 | 1.04 | 1.04 | 99 | 1011.3 |
| 20260507012009 | 4 | 285 | 3.2 | 3.2 | 0.00 | 1.04 | 1.04 | 99 | 1011.3 |
| 20260507011506 | 4 | 245 | 1.6 | 1.6 | 0.00 | 1.04 | 1.04 | 99 | 1011.3 |
| 20260507011002 | 4 | 254 | 1.6 | 1.6 | 0.00 | 1.04 | 1.04 | 99 | 1011.7 |
| 20260507010457 | 4 | 245 | 3.2 | 3.2 | 0.00 | 1.04 | 1.04 | 99 | 1011.0 |
| 20260507005954 | 5 | 277 | 3.2 | 3.2 | 0.00 | 1.04 | 1.04 | 99 | 1011.3 |
| 20260507005451 | 4 | 253 | 1.6 | 1.6 | 0.00 | 1.04 | 1.04 | 99 | 1011.0 |
| 20260507004947 | 4 | 274 | 0.0 | 1.6 | 0.00 | 1.04 | 1.04 | 99 | 1010.6 |
| 20260507004444 | 4 | 257 | 1.6 | 3.2 | 0.00 | 1.04 | 1.04 | 99 | 1011.0 |
| 20260507003942 | 4 | 245 | 1.6 | 1.6 | 0.00 | 1.04 | 1.04 | 99 | 1010.6 |
| 20260507003437 | 4 | 271 | 1.6 | 1.6 | 0.00 | 1.04 | 1.04 | 99 | 1011.0 |
| 20260507002932 | 4 | 246 | 1.6 | 3.2 | 0.00 | 1.04 | 1.04 | 99 | 1010.6 |
| 20260507002428 | 4 | 267 | 4.8 | 8.0 | 0.00 | 1.04 | 1.04 | 99 | 1010.6 |
| 20260507001925 | 4 | 249 | 4.8 | 4.8 | 0.00 | 1.04 | 1.04 | 99 | 1010.6 |
| 20260507001421 | 4 | 245 | 3.2 | 3.2 | 0.00 | 1.04 | 1.04 | 99 | 1011.0 |
| 20260507000914 | 4 | 258 | 3.2 | 3.2 | 0.00 | 1.04 | 1.04 | 99 | 1010.6 |
| 20260507000409 | 4 | 250 | 3.2 | 4.8 | 0.00 | 1.04 | 1.04 | 99 | 1010.6 |
| 20260506235905 | 4 | 274 | 3.2 | 3.2 | 0.00 | 1.04 | 1.04 | 99 | 1010.2 |
| 20260506235403 | 4 | 271 | 0.0 | 1.6 | 0.00 | 1.04 | 1.04 | 99 | 1010.6 |
| 20260506234858 | 4 | 238 | 3.2 | 4.8 | 0.00 | 1.04 | 1.04 | 99 | 1010.6 |
| 20260506234356 | 4 | 272 | 4.8 | 4.8 | 0.00 | 1.04 | 1.04 | 99 | 1010.2 |
| 20260506233854 | 4 | 271 | 3.2 | 3.2 | 0.00 | 1.04 | 1.04 | 99 | 1010.6 |
| 20260506233349 | 4 | 268 | 4.8 | 4.8 | 0.00 | 1.04 | 1.04 | 99 | 1010.2 |
| 20260506232846 | 4 | 295 | 3.2 | 3.2 | 0.00 | 1.04 | 1.04 | 99 | 1009.9 |
| 20260506232342 | 4 | 314 | 6.4 | 8.0 | 0.00 | 1.04 | 1.04 | 99 | 1010.2 |
| 20260506231833 | 4 | 268 | 3.2 | 3.2 | 0.00 | 1.04 | 1.04 | 99 | 1009.9 |
| 20260506231331 | 4 | 258 | 6.4 | 4.8 | 0.00 | 1.04 | 1.04 | 99 | 1009.9 |
| 20260506230828 | 4 | 326 | 4.8 | 4.8 | 0.00 | 1.04 | 1.04 | 99 | 1009.9 |
| 20260506230325 | 4 | 271 | 3.2 | 3.2 | 0.00 | 1.04 | 1.04 | 99 | 1009.9 |
| 20260506225820 | 4 | 290 | 4.8 | 4.8 | 0.00 | 1.04 | 1.04 | 99 | 1009.9 |
| 20260506225318 | 4 | 313 | 4.8 | 4.8 | 0.00 | 1.04 | 1.04 | 99 | 1009.9 |
| 20260506224815 | 5 | 315 | 3.2 | 3.2 | 0.00 | 1.04 | 1.04 | 99 | 1009.9 |
| 20260506224312 | 5 | 319 | 6.4 | 8.0 | 0.00 | 1.04 | 1.04 | 99 | 1009.9 |
| 20260506223809 | 5 | 315 | 1.6 | 3.2 | 0.00 | 1.04 | 1.04 | 99 | 1009.9 |
| 20260506223304 | 5 | 302 | 4.8 | 4.8 | 0.00 | 1.04 | 1.04 | 99 | 1009.5 |
| 20260506222801 | 5 | 249 | 4.8 | 4.8 | 0.00 | 1.04 | 1.04 | 99 | 1009.9 |
| 20260506222256 | 5 | 316 | 4.8 | 4.8 | 0.00 | 1.04 | 1.04 | 99 | 1009.5 |
| 20260506221754 | 5 | 313 | 1.6 | 3.2 | 0.00 | 1.04 | 1.04 | 99 | 1009.9 |
| 20260506221252 | 5 | 276 | 1.6 | 1.6 | 0.00 | 1.04 | 1.04 | 99 | 1009.9 |
| 20260506220750 | 5 | 259 | 0.0 | 1.6 | 0.00 | 1.04 | 1.04 | 99 | 1009.9 |
| 20260506220249 | 5 | 321 | 6.4 | 8.0 | 0.00 | 1.04 | 1.04 | 99 | 1009.9 |
| 20260506215746 | 5 | 338 | 6.4 | 9.7 | 0.00 | 1.04 | 1.04 | 99 | 1009.9 |
| 20260506215242 | 5 | 265 | 8.0 | 9.7 | 0.00 | 1.04 | 1.04 | 99 | 1009.5 |
| 20260506214739 | 5 | 312 | 4.8 | 8.0 | 0.00 | 1.04 | 1.04 | 99 | 1009.5 |
| 20260506214236 | 5 | 323 | 3.2 | 3.2 | 0.00 | 1.04 | 1.04 | 99 | 1009.5 |
| 20260506213734 | 5 | 278 | 6.4 | 8.0 | 0.00 | 1.04 | 1.04 | 99 | 1009.9 |
| 20260506213231 | 5 | 311 | 3.2 | 4.8 | 0.00 | 1.04 | 1.04 | 99 | 1009.5 |
| 20260506212728 | 5 | 304 | 8.0 | 11.3 | 0.00 | 1.04 | 1.04 | 99 | 1009.2 |
| 20260506212224 | 5 | 314 | 11.3 | 14.5 | 0.00 | 1.04 | 1.04 | 99 | 1009.5 |
| 20260506211719 | 5 | 323 | 3.2 | 4.8 | 0.00 | 1.04 | 1.04 | 99 | 1009.5 |
| 20260506211216 | 5 | 272 | 4.8 | 4.8 | 0.00 | 1.04 | 1.04 | 99 | 1009.2 |
| 20260506210713 | 5 | 308 | 4.8 | 4.8 | 0.00 | 1.04 | 1.04 | 99 | 1009.5 |
| 20260506210210 | 5 | 285 | 1.6 | 1.6 | 0.00 | 1.04 | 1.04 | 99 | 1009.2 |
| 20260506205708 | 5 | 334 | 11.3 | 12.9 | 0.00 | 1.04 | 1.04 | 99 | 1009.2 |
| 20260506205208 | 5 | 260 | 8.0 | 9.7 | 0.00 | 1.04 | 1.04 | 99 | 1009.2 |
| 20260506204705 | 5 | 318 | 11.3 | 17.7 | 0.00 | 1.04 | 1.04 | 99 | 1008.9 |
| 20260506204202 | 5 | 288 | 4.8 | 8.0 | 0.00 | 1.04 | 1.04 | 99 | 1008.9 |
| 20260506203700 | 5 | 267 | 8.0 | 11.3 | 0.00 | 1.04 | 1.04 | 99 | 1008.9 |
| 20260506203157 | 5 | 333 | 8.0 | 9.7 | 0.00 | 1.04 | 1.04 | 99 | 1008.9 |
| 20260506202655 | 5 | 327 | 6.4 | 9.7 | 0.00 | 1.04 | 1.04 | 99 | 1008.4 |
| 20260506202150 | 5 | 264 | 1.6 | 3.2 | 0.00 | 1.04 | 1.04 | 99 | 1008.4 |
| 20260506201648 | 5 | 236 | 8.0 | 9.7 | 0.00 | 1.04 | 1.04 | 99 | 1008.4 |
| 20260506201144 | 5 | 286 | 8.0 | 9.7 | 0.00 | 1.04 | 1.04 | 99 | 1008.1 |
| 20260506200641 | 5 | 328 | 17.7 | 24.1 | 0.00 | 1.04 | 1.04 | 99 | 1008.1 |
| 20260506200138 | 5 | 290 | 8.0 | 9.7 | 0.00 | 1.04 | 1.04 | 99 | 1008.1 |
| 20260506195634 | 5 | 316 | 6.4 | 9.7 | 0.03 | 1.04 | 1.04 | 99 | 1008.1 |
| 20260506195130 | 5 | 319 | 6.4 | 8.0 | 0.03 | 1.04 | 1.04 | 99 | 1008.1 |
| 20260506194628 | 5 | 321 | 17.7 | 17.7 | 0.03 | 1.04 | 1.04 | 99 | 1008.1 |
| 20260506194124 | 5 | 306 | 4.8 | 4.8 | 0.03 | 1.04 | 1.04 | 99 | 1008.1 |
| 20260506193622 | 5 | 299 | 6.4 | 8.0 | 0.03 | 1.04 | 1.04 | 99 | 1008.1 |
| 20260506193119 | 5 | 306 | 6.4 | 9.7 | 0.03 | 1.04 | 1.04 | 99 | 1008.1 |
| 20260506192616 | 5 | 307 | 6.4 | 9.7 | 0.00 | 1.02 | 1.02 | 99 | 1008.1 |
| 20260506192107 | 5 | 319 | 8.0 | 9.7 | 0.00 | 1.02 | 1.02 | 99 | 1008.1 |
| 20260506191603 | 5 | 309 | 6.4 | 8.0 | 0.00 | 1.02 | 1.02 | 99 | 1008.1 |
| 20260506191058 | 5 | 300 | 6.4 | 8.0 | 0.00 | 1.02 | 1.02 | 99 | 1008.1 |
| 20260506190556 | 5 | 302 | 9.7 | 11.3 | 0.00 | 1.02 | 1.02 | 99 | 1008.1 |
| 20260506190053 | 5 | 317 | 6.4 | 8.0 | 0.00 | 1.02 | 1.02 | 99 | 1008.1 |
| 20260506185550 | 5 | 320 | 12.9 | 17.7 | 0.05 | 1.02 | 1.02 | 99 | 1008.1 |
| 20260506185047 | 5 | 310 | 9.7 | 11.3 | 0.05 | 1.02 | 1.02 | 99 | 1007.8 |
| 20260506184544 | 5 | 316 | 6.4 | 8.0 | 0.05 | 1.02 | 1.02 | 99 | 1007.8 |
| 20260506184041 | 5 | 301 | 8.0 | 9.7 | 0.05 | 1.02 | 1.02 | 99 | 1007.8 |
| 20260506183537 | 5 | 318 | 8.0 | 9.7 | 0.03 | 0.99 | 0.99 | 99 | 1007.8 |
| 20260506183034 | 5 | 305 | 6.4 | 8.0 | 0.03 | 0.99 | 0.99 | 99 | 1007.8 |
| 20260506182531 | 5 | 233 | 9.7 | 14.5 | 0.03 | 0.99 | 0.99 | 99 | 1007.4 |
| 20260506182028 | 6 | 284 | 8.0 | 11.3 | 0.03 | 0.99 | 0.99 | 99 | 1007.4 |
| 20260506181526 | 6 | 334 | 11.3 | 14.5 | 0.00 | 0.97 | 0.97 | 99 | 1007.4 |
| 20260506181023 | 6 | 323 | 4.8 | 4.8 | 0.00 | 0.97 | 0.97 | 99 | 1007.1 |
| 20260506180519 | 6 | 315 | 8.0 | 9.7 | 0.00 | 0.97 | 0.97 | 99 | 1007.4 |
| 20260506180016 | 6 | 266 | 4.8 | 9.7 | 0.00 | 0.97 | 0.97 | 99 | 1007.4 |
| 20260506175513 | 6 | 301 | 6.4 | 8.0 | 0.00 | 0.97 | 0.97 | 99 | 1007.4 |
| 20260506175009 | 6 | 217 | 4.8 | 4.8 | 0.00 | 0.97 | 0.97 | 99 | 1007.1 |
| 20260506174508 | 6 | 301 | 8.0 | 9.7 | 0.00 | 0.97 | 0.97 | 99 | 1007.1 |
| 20260506174003 | 6 | 319 | 4.8 | 8.0 | 0.00 | 0.97 | 0.97 | 99 | 1007.4 |
| 20260506173501 | 6 | 330 | 6.4 | 9.7 | 0.00 | 0.97 | 0.97 | 99 | 1007.1 |
| 20260506172958 | 6 | 325 | 8.0 | 9.7 | 0.00 | 0.97 | 0.97 | 99 | 1007.1 |
| 20260506172455 | 6 | 272 | 4.8 | 4.8 | 0.00 | 0.97 | 0.97 | 99 | 1007.1 |
| 20260506171951 | 6 | 320 | 6.4 | 8.0 | 0.00 | 0.97 | 0.97 | 99 | 1007.1 |
| 20260506171449 | 5 | 312 | 6.4 | 8.0 | 0.00 | 0.97 | 0.97 | 99 | 1006.6 |
| 20260506170947 | 6 | 317 | 4.8 | 4.8 | 0.00 | 0.97 | 0.97 | 99 | 1007.1 |
| 20260506170443 | 5 | 323 | 8.0 | 9.7 | 0.00 | 0.97 | 0.97 | 99 | 1007.1 |
| 20260506165942 | 5 | 302 | 4.8 | 8.0 | 0.00 | 0.97 | 0.97 | 99 | 1007.1 |
| 20260506165440 | 5 | 307 | 9.7 | 11.3 | 0.00 | 0.97 | 0.97 | 99 | 1007.1 |
| 20260506164936 | 6 | 322 | 6.4 | 8.0 | 0.00 | 0.97 | 0.97 | 99 | 1007.1 |
| 20260506164432 | 6 | 314 | 6.4 | 8.0 | 0.00 | 0.97 | 0.97 | 99 | 1007.1 |
| 20260506163925 | 5 | 304 | 3.2 | 3.2 | 0.00 | 0.97 | 0.97 | 99 | 1007.1 |
| 20260506163419 | 5 | 303 | 8.0 | 11.3 | 0.00 | 0.97 | 0.97 | 99 | 1007.1 |
| 20260506162915 | 6 | 319 | 8.0 | 9.7 | 0.00 | 0.97 | 0.97 | 99 | 1007.1 |
| 20260506162412 | 5 | 313 | 4.8 | 4.8 | 0.00 | 0.97 | 0.97 | 99 | 1007.1 |
| 20260506161909 | 5 | 304 | 6.4 | 8.0 | 0.00 | 0.97 | 0.97 | 99 | 1007.1 |
| 20260506161407 | 5 | 313 | 6.4 | 9.7 | 0.00 | 0.97 | 0.97 | 99 | 1006.6 |
| 20260506160859 | 5 | 321 | 6.4 | 9.7 | 0.00 | 0.97 | 0.97 | 99 | 1007.1 |
| 20260506160355 | 5 | 267 | 4.8 | 8.0 | 0.00 | 0.97 | 0.97 | 99 | 1007.1 |
| 20260506155854 | 5 | 265 | 3.2 | 3.2 | 0.03 | 0.97 | 0.97 | 99 | 1006.6 |
| 20260506155351 | 5 | 315 | 3.2 | 3.2 | 0.03 | 0.97 | 0.97 | 99 | 1006.6 |
| 20260506153508 | 5 | 292 | 1.6 | 1.6 | 0.03 | 0.97 | 0.97 | 99 | 1007.1 |
| 20260506153006 | 5 | 281 | 3.2 | 3.2 | 0.03 | 0.97 | 0.97 | 99 | 1007.1 |
| 20260506152502 | 5 | 269 | 1.6 | 1.6 | 0.03 | 0.97 | 0.97 | 99 | 1007.1 |
| 20260506152001 | 5 | 319 | 0.0 | 0.0 | 0.00 | 0.94 | 0.94 | 99 | 1007.1 |
| 20260506151458 | 5 | 243 | 1.6 | 1.6 | 0.00 | 0.94 | 0.94 | 99 | 1007.1 |
| 20260506150955 | 5 | 286 | 1.6 | 3.2 | 0.00 | 0.94 | 0.94 | 99 | 1007.1 |
| 20260506150450 | 5 | 314 | 6.4 | 8.0 | 0.00 | 0.94 | 0.94 | 99 | 1007.1 |
| 20260506145948 | 5 | 278 | 8.0 | 11.3 | 0.00 | 0.94 | 0.94 | 99 | 1007.1 |
| 20260506145444 | 5 | 309 | 6.4 | 4.8 | 0.00 | 0.94 | 0.94 | 99 | 1007.1 |
| 20260506144942 | 5 | 270 | 4.8 | 4.8 | 0.00 | 0.94 | 0.94 | 99 | 1007.1 |
| 20260506144438 | 6 | 315 | 4.8 | 4.8 | 0.00 | 0.94 | 0.94 | 99 | 1007.1 |
| 20260506143937 | 6 | 314 | 4.8 | 4.8 | 0.00 | 0.94 | 0.94 | 99 | 1006.6 |
| 20260506143433 | 6 | 289 | 3.2 | 4.8 | 0.00 | 0.94 | 0.94 | 99 | 1006.6 |
| 20260506142932 | 6 | 309 | 4.8 | 3.2 | 0.00 | 0.94 | 0.94 | 99 | 1006.3 |
| 20260506142430 | 6 | 295 | 3.2 | 3.2 | 0.00 | 0.94 | 0.94 | 99 | 1006.3 |
| 20260506141927 | 6 | 244 | 0.0 | 1.6 | 0.00 | 0.94 | 0.94 | 99 | 1006.6 |
| 20260506141425 | 6 | 260 | 1.6 | 1.6 | 0.00 | 0.94 | 0.94 | 99 | 1006.6 |
| 20260506140923 | 6 | 216 | 1.6 | 3.2 | 0.00 | 0.94 | 0.94 | 99 | 1007.1 |
| 20260506140420 | 6 | 296 | 3.2 | 3.2 | 0.00 | 0.94 | 0.94 | 99 | 1006.6 |
| 20260506135917 | 6 | 265 | 4.8 | 8.0 | 0.20 | 0.94 | 0.94 | 99 | 1007.1 |
| 20260506135414 | 7 | 233 | 1.6 | 3.2 | 0.20 | 0.94 | 0.94 | 99 | 1006.6 |
| 20260506134910 | 7 | 248 | 1.6 | 1.6 | 0.18 | 0.91 | 0.91 | 98 | 1007.1 |
| 20260506134406 | 8 | 226 | 0.0 | 0.0 | 0.18 | 0.91 | 0.91 | 99 | 1006.6 |
| 20260506133903 | 8 | 227 | 0.0 | 0.0 | 0.18 | 0.91 | 0.91 | 99 | 1006.6 |
| 20260506133400 | 10 | 221 | 0.0 | 0.0 | 0.18 | 0.91 | 0.91 | 99 | 1007.1 |
| 20260506132857 | 10 | 193 | 4.8 | 3.2 | 0.15 | 0.89 | 0.89 | 99 | 1007.1 |
| 20260506132354 | 9 | 167 | 0.0 | 1.6 | 0.13 | 0.86 | 0.86 | 99 | 1006.6 |
| 20260506131852 | 9 | 201 | 0.0 | 0.0 | 0.10 | 0.84 | 0.84 | 99 | 1007.1 |
| 20260506131348 | 8 | 189 | 4.8 | 4.8 | 0.08 | 0.81 | 0.81 | 99 | 1007.1 |
| 20260506130845 | 8 | 250 | 0.0 | 0.0 | 0.05 | 0.79 | 0.79 | 98 | 1007.1 |
| 20260506130341 | 8 | 186 | 0.0 | 0.0 | 0.03 | 0.76 | 0.76 | 98 | 1007.1 |
| 20260506125839 | 8 | 257 | 0.0 | 0.0 | 0.30 | 0.71 | 0.71 | 98 | 1007.1 |
| 20260506125338 | 8 | 301 | 1.6 | 1.6 | 0.28 | 0.69 | 0.69 | 98 | 1007.4 |
| 20260506124836 | 9 | 318 | 6.4 | 9.7 | 0.23 | 0.64 | 0.64 | 98 | 1007.4 |
| 20260506124332 | 10 | 239 | 0.0 | 1.6 | 0.20 | 0.61 | 0.61 | 98 | 1007.4 |
| 20260506123830 | 10 | 206 | 1.6 | 1.6 | 0.18 | 0.58 | 0.58 | 98 | 1007.1 |
| 20260506123328 | 10 | 171 | 0.0 | 1.6 | 0.15 | 0.56 | 0.56 | 98 | 1007.1 |
| 20260506122825 | 10 | 194 | 1.6 | 1.6 | 0.10 | 0.51 | 0.51 | 98 | 1007.1 |
| 20260506122322 | 10 | 173 | 1.6 | 1.6 | 0.08 | 0.48 | 0.48 | 98 | 1007.1 |
| 20260506121820 | 10 | 201 | 0.0 | 0.0 | 0.05 | 0.46 | 0.46 | 98 | 1006.6 |
| 20260506121317 | 10 | 155 | 1.6 | 1.6 | 0.03 | 0.43 | 0.43 | 98 | 1006.6 |
| 20260506120814 | 10 | 166 | 1.6 | 1.6 | 0.03 | 0.43 | 0.43 | 97 | 1006.6 |
| 20260506120312 | 10 | 159 | 4.8 | 8.0 | 0.00 | 0.41 | 0.41 | 97 | 1006.3 |
| 20260506115809 | 10 | 172 | 3.2 | 3.2 | 0.20 | 0.41 | 0.41 | 97 | 1006.6 |
| 20260506115307 | 10 | 145 | 8.0 | 9.7 | 0.18 | 0.38 | 0.38 | 97 | 1007.1 |
| 20260506114805 | 10 | 157 | 8.0 | 12.9 | 0.18 | 0.38 | 0.38 | 97 | 1006.6 |
| 20260506114303 | 10 | 169 | 8.0 | 11.3 | 0.15 | 0.36 | 0.36 | 97 | 1006.6 |
| 20260506113801 | 10 | 204 | 8.0 | 11.3 | 0.15 | 0.36 | 0.36 | 97 | 1006.6 |
| 20260506113258 | 10 | 183 | 6.4 | 9.7 | 0.13 | 0.33 | 0.33 | 97 | 1006.6 |
| 20260506112754 | 10 | 156 | 4.8 | 4.8 | 0.13 | 0.33 | 0.33 | 97 | 1007.1 |
| 20260506112252 | 10 | 179 | 4.8 | 4.8 | 0.10 | 0.30 | 0.30 | 97 | 1007.1 |
| 20260506111749 | 10 | 153 | 11.3 | 12.9 | 0.08 | 0.28 | 0.28 | 97 | 1007.1 |
| 20260506111247 | 10 | 182 | 8.0 | 11.3 | 0.05 | 0.25 | 0.25 | 97 | 1007.1 |
| 20260506110744 | 10 | 191 | 0.0 | 0.0 | 0.00 | 0.20 | 0.20 | 97 | 1007.4 |
| 20260506110241 | 9 | 172 | 6.4 | 9.7 | 0.00 | 0.20 | 0.20 | 97 | 1007.4 |
| 20260506105737 | 9 | 207 | 6.4 | 9.7 | 0.10 | 0.20 | 0.20 | 97 | 1007.4 |
| 20260506105234 | 9 | 205 | 4.8 | 3.2 | 0.08 | 0.18 | 0.18 | 98 | 1007.1 |
| 20260506104732 | 9 | 188 | 3.2 | 3.2 | 0.08 | 0.18 | 0.18 | 98 | 1007.1 |
| 20260506104230 | 9 | 224 | 6.4 | 8.0 | 0.08 | 0.18 | 0.18 | 98 | 1007.1 |
| 20260506103727 | 9 | 174 | 4.8 | 4.8 | 0.05 | 0.15 | 0.15 | 98 | 1007.1 |
| 20260506103224 | 9 | 221 | 3.2 | 4.8 | 0.05 | 0.15 | 0.15 | 98 | 1007.1 |
| 20260506102722 | 9 | 198 | 0.0 | 0.0 | 0.05 | 0.15 | 0.15 | 98 | 1007.1 |
| 20260506102220 | 8 | 195 | 1.6 | 1.6 | 0.03 | 0.13 | 0.13 | 98 | 1007.1 |
| 20260506101716 | 8 | 214 | 0.0 | 0.0 | 0.03 | 0.13 | 0.13 | 98 | 1007.1 |
| 20260506101213 | 8 | 205 | 1.6 | 1.6 | 0.03 | 0.13 | 0.13 | 98 | 1007.1 |
| 20260506100711 | 8 | 352 | 0.0 | 0.0 | 0.00 | 0.10 | 0.10 | 98 | 1007.1 |
| 20260506100208 | 8 | 308 | 0.0 | 0.0 | 0.00 | 0.10 | 0.10 | 98 | 1007.4 |
| 20260506095707 | 8 | 284 | 0.0 | 0.0 | 0.08 | 0.08 | 0.08 | 98 | 1007.1 |
| 20260506095204 | 7 | 273 | 0.0 | 0.0 | 0.08 | 0.08 | 0.08 | 97 | 1007.1 |
| 20260506094701 | 7 | 274 | 1.6 | 1.6 | 0.08 | 0.08 | 0.08 | 97 | 1007.4 |
| 20260506094158 | 7 | 264 | 1.6 | 1.6 | 0.05 | 0.05 | 0.05 | 97 | 1007.4 |
| 20260506093657 | 7 | 247 | 1.6 | 1.6 | 0.05 | 0.05 | 0.05 | 97 | 1007.8 |
| 20260506093154 | 7 | 264 | 1.6 | 1.6 | 0.05 | 0.05 | 0.05 | 96 | 1007.4 |
| 20260506092651 | 7 | 336 | 8.0 | 11.3 | 0.05 | 0.05 | 0.05 | 95 | 1007.1 |
| 20260506092149 | 8 | 251 | 3.2 | 3.2 | 0.03 | 0.03 | 0.03 | 94 | 1007.4 |
| 20260506091647 | 8 | 299 | 8.0 | 11.3 | 0.03 | 0.03 | 0.03 | 92 | 1007.4 |
| 20260506091144 | 10 | 207 | 4.8 | 4.8 | 0.03 | 0.03 | 0.03 | 92 | 1007.4 |
| 20260506090642 | 10 | 176 | 3.2 | 4.8 | 0.03 | 0.03 | 0.03 | 92 | 1007.1 |
| 20260506090138 | 10 | 177 | 9.7 | 12.9 | 0.00 | 0.00 | 0.00 | 92 | 1007.1 |
| 20260506085635 | 9 | 148 | 11.3 | 16.1 | 0.00 | 0.00 | 0.00 | 93 | 1007.4 |
| 20260506085131 | 9 | 180 | 4.8 | 9.7 | 0.00 | 0.00 | 0.00 | 94 | 1007.1 |
| 20260506084627 | 9 | 124 | 4.8 | 8.0 | 0.00 | 0.00 | 0.00 | 95 | 1007.4 |
| 20260506084124 | 8 | 108 | 9.7 | 12.9 | 0.00 | 0.00 | 0.00 | 95 | 1007.8 |
| 20260506083621 | 8 | 99 | 8.0 | 11.3 | 0.00 | 0.00 | 0.00 | 95 | 1007.4 |
| 20260506083119 | 8 | 95 | 8.0 | 11.3 | 0.00 | 0.00 | 0.00 | 94 | 1007.8 |
| 20260506082615 | 8 | 107 | 9.7 | 11.3 | 0.00 | 0.00 | 0.00 | 94 | 1007.4 |
| 20260506082111 | 8 | 100 | 11.3 | 12.9 | 0.00 | 0.00 | 0.00 | 94 | 1007.1 |
| 20260506081610 | 8 | 101 | 8.0 | 9.7 | 0.00 | 0.00 | 0.00 | 94 | 1007.4 |
| 20260506081107 | 8 | 91 | 6.4 | 8.0 | 0.00 | 0.00 | 0.00 | 95 | 1007.8 |
| 20260506080604 | 8 | 101 | 11.3 | 12.9 | 0.00 | 0.00 | 0.00 | 95 | 1007.4 |
| 20260506073044 | 8 | 102 | 9.7 | 11.3 | 0.00 | 0.00 | 0.00 | 94 | 1007.4 |
| 20260506072541 | 8 | 99 | 11.3 | 12.9 | 0.00 | 0.00 | 0.00 | 94 | 1007.4 |
| 20260506072039 | 8 | 110 | 6.4 | 8.0 | 0.00 | 0.00 | 0.00 | 94 | 1007.8 |
| 20260506071537 | 8 | 96 | 6.4 | 8.0 | 0.00 | 0.00 | 0.00 | 94 | 1007.4 |
| 20260506071034 | 8 | 99 | 6.4 | 8.0 | 0.00 | 0.00 | 0.00 | 94 | 1007.8 |
| 20260506070531 | 8 | 93 | 3.2 | 4.8 | 0.00 | 0.00 | 0.00 | 94 | 1007.8 |
| 20260506062509 | 8 | 86 | 0.0 | 1.6 | 0.00 | 0.00 | 0.00 | 92 | 1008.9 |
| 20260506062005 | 8 | 90 | 0.0 | 0.0 | 0.00 | 0.00 | 0.00 | 93 | 1008.9 |
| 20260506061501 | 8 | 91 | 1.6 | 1.6 | 0.00 | 0.00 | 0.00 | 92 | 1008.9 |
| 20260506060959 | 8 | 105 | 0.0 | 0.0 | 0.00 | 0.00 | 0.00 | 92 | 1008.9 |
| 20260506060457 | 8 | 105 | 0.0 | 0.0 | 0.00 | 0.00 | 0.00 | 92 | 1008.9 |